Big Bear Station Historical Data
Daily Summary for August 19, 2017 Units:  English    Metric   Both
« Previous Day
Next Day »
Daily Weekly Monthly Yearly Custom
  High: Low: Average:
Temperature: 80.4 °F 47.8 °F 62.8 °F
Dew Point: 51.1 °F 33.9 °F 44.6 °F
Humidity: 84 % 30 % 55 %
Wind Speed: 5.8 mph 0.0 mph 1.8 mph
Wind Gust: -999.0 mph - -
Wind:- - WNW
Pressure: 30.27 in 30.20 in -
Precipitation: 0.00 in    
Historical Graphs
 
 
Tabular Data for August 19, 2017
Time Temperature Dew Point Pressure Wind Wind Speed Wind Gust Humidity Rainfall Rate (Hourly)
00:00 54.3 °F 43.6 °F 30.27 in Calm   -999.0 mph 67 % 0 in
00:15 53.8 °F 43.1 °F 30.27 in Calm   -999.0 mph 67 % 0 in
00:31 53.6 °F 43.3 °F 30.27 in Calm   -999.0 mph 68 % 0 in
00:46 53.2 °F 43.3 °F 30.27 in Calm   -999.0 mph 69 % 0 in
01:01 53.1 °F 43.6 °F 30.26 in Calm   -999.0 mph 70 % 0 in
01:16 52.7 °F 42.8 °F 30.26 in Calm   -999.0 mph 69 % 0 in
01:32 52.5 °F 42.6 °F 30.25 in Calm   -999.0 mph 69 % 0 in
01:47 52.0 °F 42.9 °F 30.25 in Calm   -999.0 mph 71 % 0 in
02:02 51.8 °F 42.7 °F 30.25 in Calm   -999.0 mph 71 % 0 in
02:17 51.4 °F 42.7 °F 30.25 in Calm   -999.0 mph 72 % 0 in
02:32 51.1 °F 43.5 °F 30.25 in Calm   -999.0 mph 75 % 0 in
02:48 50.9 °F 42.9 °F 30.25 in Calm   -999.0 mph 74 % 0 in
03:03 50.7 °F 43.4 °F 30.24 in Calm   -999.0 mph 76 % 0 in
03:18 50.4 °F 43.5 °F 30.24 in Calm   -999.0 mph 77 % 0 in
03:33 50.4 °F 43.5 °F 30.24 in Calm   -999.0 mph 77 % 0 in
03:48 50.2 °F 43.6 °F 30.24 in Calm   -999.0 mph 78 % 0 in
04:04 49.8 °F 42.5 °F 30.24 in Calm   -999.0 mph 76 % 0 in
04:19 49.5 °F 43.3 °F 30.23 in Calm   -999.0 mph 79 % 0 in
04:34 49.3 °F 43.4 °F 30.24 in Calm   -999.0 mph 80 % 0 in
04:49 49.3 °F 43.7 °F 30.23 in Calm   -999.0 mph 81 % 0 in
05:04 48.9 °F 43.6 °F 30.23 in Calm   -999.0 mph 82 % 0 in
05:20 48.9 °F 44.0 °F 30.23 in Calm   -999.0 mph 83 % 0 in
05:35 48.6 °F 43.7 °F 30.24 in Calm   -999.0 mph 83 % 0 in
05:50 48.4 °F 42.8 °F 30.24 in Calm   -999.0 mph 81 % 0 in
06:05 48.0 °F 42.4 °F 30.24 in Calm   -999.0 mph 81 % 0 in
06:20 48.0 °F 43.1 °F 30.24 in Calm   -999.0 mph 83 % 0 in
06:36 47.8 °F 43.2 °F 30.25 in Calm   -999.0 mph 84 % 0 in
06:51 48.6 °F 43.7 °F 30.25 in Calm   -999.0 mph 83 % 0 in
07:06 48.4 °F 43.5 °F 30.25 in Calm   -999.0 mph 83 % 0 in
07:21 48.6 °F 44.0 °F 30.25 in Calm   -999.0 mph 84 % 0 in
07:37 49.3 °F 44.4 °F 30.25 in Calm   -999.0 mph 83 % 0 in
07:52 49.6 °F 45.0 °F 30.25 in Calm   -999.0 mph 84 % 0 in
08:07 51.3 °F 46.6 °F 30.25 in Calm   -999.0 mph 84 % 0 in
08:22 52.9 °F 47.9 °F 30.26 in Calm   -999.0 mph 83 % 0 in
08:37 55.0 °F 48.6 °F 30.26 in Calm   -999.0 mph 79 % 0 in
08:53 57.4 °F 48.4 °F 30.26 in Calm   -999.0 mph 72 % 0 in
09:08 60.3 °F 48.1 °F 30.26 in Calm   -999.0 mph 64 % 0 in
09:23 63.7 °F 47.2 °F 30.26 in NNW 1.7 mph -999.0 mph 55 % 0 in
09:38 65.7 °F 45.5 °F 30.26 in Calm   -999.0 mph 48 % 0 in
09:53 66.7 °F 44.1 °F 30.26 in NNW 3.2 mph -999.0 mph 44 % 0 in
10:09 68.0 °F 44.1 °F 30.26 in NW 3.7 mph -999.0 mph 42 % 0 in
10:24 69.4 °F 43.4 °F 30.26 in NNW 3.7 mph -999.0 mph 39 % 0 in
10:39 71.1 °F 44.2 °F 30.26 in NNW 3.7 mph -999.0 mph 38 % 0 in
10:54 73.0 °F 44.5 °F 30.25 in NNW 4.7 mph -999.0 mph 36 % 0 in
11:10 74.5 °F 44.3 °F 30.25 in NW 5.3 mph -999.0 mph 34 % 0 in
11:25 75.2 °F 44.1 °F 30.25 in NW 5.3 mph -999.0 mph 33 % 0 in
11:41 76.5 °F 45.3 °F 30.25 in NW 5.8 mph -999.0 mph 33 % 0 in
11:56 76.8 °F 43.0 °F 30.25 in NNW 5.3 mph -999.0 mph 30 % 0 in
12:11 77.4 °F 44.4 °F 30.25 in NNE 5.8 mph -999.0 mph 31 % 0 in
12:26 77.9 °F 45.7 °F 30.25 in North 3.7 mph -999.0 mph 32 % 0 in
12:42 78.4 °F 46.1 °F 30.24 in NNW 5.8 mph -999.0 mph 32 % 0 in
12:57 79.0 °F 44.9 °F 30.24 in WNW 3.7 mph -999.0 mph 30 % 0 in
13:13 78.8 °F 46.5 °F 30.24 in NNW 4.7 mph -999.0 mph 32 % 0 in
13:28 79.5 °F 45.4 °F 30.23 in NNW 4.7 mph -999.0 mph 30 % 0 in
13:43 79.3 °F 47.7 °F 30.23 in North 4.2 mph -999.0 mph 33 % 0 in
13:59 79.5 °F 46.2 °F 30.23 in North 3.7 mph -999.0 mph 31 % 0 in
14:14 79.7 °F 45.5 °F 30.22 in NNW 4.2 mph -999.0 mph 30 % 0 in
14:29 80.4 °F 46.1 °F 30.22 in NW 4.7 mph -999.0 mph 30 % 0 in
14:46 78.4 °F 47.7 °F 30.22 in NW 4.2 mph -999.0 mph 34 % 0 in
15:01 79.2 °F 46.8 °F 30.21 in North 4.2 mph -999.0 mph 32 % 0 in
15:16 78.4 °F 46.9 °F 30.21 in NNW 4.7 mph -999.0 mph 33 % 0 in
15:32 76.3 °F 48.1 °F 30.21 in North 4.2 mph -999.0 mph 37 % 0 in
15:47 77.5 °F 49.9 °F 30.21 in NW 4.7 mph -999.0 mph 38 % 0 in
16:02 76.6 °F 51.1 °F 30.20 in NW 5.8 mph -999.0 mph 41 % 0 in
16:17 76.1 °F 50.0 °F 30.20 in SSW 3.2 mph -999.0 mph 40 % 0 in
16:33 74.8 °F 47.5 °F 30.20 in NE 2.7 mph -999.0 mph 38 % 0 in
16:48 75.2 °F 47.1 °F 30.20 in West 3.2 mph -999.0 mph 37 % 0 in
17:03 77.9 °F 47.3 °F 30.20 in SSW 1.7 mph -999.0 mph 34 % 0 in
17:18 77.4 °F 49.1 °F 30.20 in NW 4.7 mph -999.0 mph 37 % 0 in
17:34 76.5 °F 49.0 °F 30.20 in NW 2.7 mph -999.0 mph 38 % 0 in
17:49 77.4 °F 47.6 °F 30.20 in SSE 1.1 mph -999.0 mph 35 % 0 in
18:04 75.7 °F 49.7 °F 30.20 in NNW 4.2 mph -999.0 mph 40 % 0 in
18:19 73.4 °F 47.6 °F 30.20 in WNW 4.2 mph -999.0 mph 40 % 0 in
18:35 71.1 °F 48.7 °F 30.20 in NNW 2.2 mph -999.0 mph 45 % 0 in
18:50 68.4 °F 50.1 °F 30.20 in WNW 3.7 mph -999.0 mph 52 % 0 in
19:06 65.5 °F 49.4 °F 30.20 in NW 3.7 mph -999.0 mph 56 % 0 in
19:21 64.2 °F 49.6 °F 30.20 in NNW 3.2 mph -999.0 mph 59 % 0 in
19:36 63.1 °F 48.5 °F 30.20 in North 2.2 mph -999.0 mph 59 % 0 in
19:51 62.4 °F 47.9 °F 30.20 in NW 2.7 mph -999.0 mph 59 % 0 in
20:07 62.4 °F 46.5 °F 30.21 in NNE 1.1 mph -999.0 mph 56 % 0 in
20:22 61.9 °F 45.6 °F 30.21 in Calm   -999.0 mph 55 % 0 in
20:37 61.7 °F 45.8 °F 30.21 in NNE 1.7 mph -999.0 mph 56 % 0 in
20:52 61.5 °F 44.7 °F 30.21 in Calm   -999.0 mph 54 % 0 in
21:08 61.2 °F 44.4 °F 30.22 in Calm   -999.0 mph 54 % 0 in
21:23 61.2 °F 43.4 °F 30.22 in Calm   -999.0 mph 52 % 0 in
21:39 60.8 °F 41.5 °F 30.22 in ESE 1.7 mph -999.0 mph 49 % 0 in
21:54 60.4 °F 39.0 °F 30.22 in Calm   -999.0 mph 45 % 0 in
22:24 59.4 °F 37.5 °F 30.23 in Calm   -999.0 mph 44 % 0 in
22:39 59.2 °F 35.5 °F 30.23 in South 2.2 mph -999.0 mph 41 % 0 in
22:55 58.5 °F 34.9 °F 30.23 in Calm   -999.0 mph 41 % 0 in
23:10 57.2 °F 34.9 °F 30.23 in Calm   -999.0 mph 43 % 0 in
23:25 56.5 °F 37.0 °F 30.22 in Calm   -999.0 mph 48 % 0 in
23:41 55.8 °F 36.4 °F 30.23 in Calm   -999.0 mph 48 % 0 in
23:56 54.9 °F 33.9 °F 30.22 in Calm   -999.0 mph 45 % 0 in
Big Bear CA Weather
Compliments of Weather Underground - 1.5 mb